Location: Newark
(49.3667°N, 21.6167°E)
Time: 15:02:19
(UTC+00:00)

Envisat - Pass Details

Date: 10 December 2019
Orbit: 764 x 766 km, 98.1° (Epoch: 18 January)

Event Time Altitude Azimuth Distance (km) Brightness Sun altitude
Rises 17:36:55 0° 205° (SSW) 3,222 6.6 -28.5°
Reaches altitude 10° 17:39:45 10° 221° (SW) 2,301 6.0 -29.0°
Maximum altitude 17:43:33 21° 270° (W) 1,675 5.4 -29.6°
Drops below altitude 10° 17:47:22 10° 318° (NW) 2,314 5.9 -30.2°
Sets 17:50:15 0° 335° (NNW) 3,246 6.5 -30.7°
